Wind_Speed
2 1 2 4 6 7 7 7 7 4 4 3 3 3 5 5 6 6 5 6 1 4 1 4 5 4 8 9 8 13 15 12 10 12 15 19 22 24 26 28 30 32 31 28 28 30 31 30 29 31 32 29 25 20 19 23 26 24 23 22 19 16 14 11 12 13 13 13 11 11 11 11 9 8 7 6 5 4 2 2 2 4 5 5 5 4
3 2 6 9 10 8 5 4 4 2 2 2 3 3 4 4 6 6 4 6 2 5 3 1 8 4 7 8 7 12 11 10 13 15 17 21 22 24 27 27 28 29 29 29 31 36 35 32 31 32 32 30 23 19 21 24 25 25 23 21 19 16 15 13 13 15 14 12 10 9 10 10 8 7 5 4 3 2 2 2 2 3 5 6 6 6
2 4 10 9 6 4 3 4 4 2 2 2 2 2 2 3 4 7 5 7 5 5 2 0 8 2 2 3 5 12 12 12 19 23 25 28 26 26 28 28 29 29 30 33 36 38 38 36 34 33 33 30 23 21 24 24 25 25 23 22 19 17 16 14 15 16 14 12 10 8 8 8 7 6 5 3 2 2 2 2 2 2 3 5 6 6
1 6 8 4 5 4 3 2 4 0 1 2 3 2 2 4 1 3 5 7 7 3 1 3 6 2 4 2 3 9 9 10 20 23 22 27 29 29 32 33 33 34 35 36 37 38 38 37 36 36 35 30 26 28 28 28 27 26 24 22 20 19 18 17 19 18 15 13 11 9 8 7 6 5 4 3 2 2 2 3 3 3 3 3 3 4
6 9 5 4 6 6 4 3 3 2 2 3 4 4 3 4 3 4 5 5 6 5 3 6 6 4 3 2 4 7 3 3 14 18 17 22 26 25 27 31 33 35 37 39 40 40 41 39 37 36 34 32 32 34 33 31 29 26 24 23 21 21 20 20 21 19 17 16 14 12 11 9 7 7 5 5 5 4 3 3 3 3 3 3 3 3
8 9 4 1 2 5 5 5 4 6 3 4 4 7 7 6 5 3 3 4 5 5 4 5 4 3 4 1 5 4 2 3 8 13 15 20 21 20 23 27 31 32 35 39 40 41 42 39 35 33 33 34 36 37 34 33 30 27 24 23 22 22 22 23 22 20 18 17 14 12 10 9 9 8 6 5 5 5 4 4 4 4 4 3 2 3
5 5 0 3 5 4 5 5 5 7 4 2 5 6 6 5 2 1 4 5 3 1 3 4 5 2 5 2 4 4 6 7 5 7 10 15 18 20 24 27 29 31 33 36 37 37 38 38 34 33 32 34 37 36 34 32 30 27 25 24 24 24 24 24 23 21 19 16 13 9 7 6 7 7 7 6 5 5 5 4 4 3 3 3 2 3
3 4 3 1 3 4 4 4 5 8 7 3 6 5 7 6 4 2 5 5 2 2 3 5 5 3 3 3 5 3 4 5 5 7 6 11 19 20 23 25 27 31 33 35 36 35 36 36 35 34 33 33 35 35 33 32 30 27 24 25 26 26 26 25 23 21 18 16 13 9 7 6 6 7 8 8 7 6 5 4 3 2 3 3 3 3
1 3 3 1 3 3 5 6 7 9 4 6 6 6 5 5 5 4 5 4 1 1 2 7 4 2 3 5 4 1 4 5 8 10 8 12 20 22 23 25 27 29 31 33 35 35 36 36 35 34 33 33 34 34 32 31 29 25 24 25 27 26 26 25 22 20 19 16 12 10 9 8 8 9 9 9 8 7 5 4 3 4 4 4 3 4
3 5 4 4 4 4 6 6 9 10 4 4 5 5 4 4 4 4 5 3 3 3 2 6 2 2 3 5 4 3 3 4 8 8 9 13 19 23 24 25 26 27 29 32 33 34 35 35 35 33 32 32 33 32 30 29 26 24 23 25 27 26 25 24 22 20 19 18 14 12 11 10 10 11 11 9 8 7 6 5 5 5 4 4 4 5
6 5 2 4 5 6 5 4 6 8 4 3 5 4 5 5 5 4 3 4 5 2 5 7 2 3 1 5 3 1 1 4 6 6 7 10 16 21 23 24 25 27 29 31 31 31 32 34 35 32 29 31 32 31 30 29 26 23 23 24 26 26 24 23 21 21 20 18 16 14 13 11 11 12 11 9 8 8 7 7 6 6 5 5 5 5
7 4 2 3 5 3 3 2 2 1 2 4 5 4 4 2 4 4 4 4 5 2 6 6 1 4 2 4 4 4 5 4 6 7 8 10 15 20 22 23 25 26 27 29 30 29 29 33 34 31 29 29 31 31 31 30 27 24 24 25 26 26 23 21 21 20 20 19 18 17 15 12 11 12 11 8 8 8 8 8 7 7 7 6 6 5
4 4 3 5 4 3 5 2 1 4 5 5 5 5 4 1 3 1 2 1 2 3 4 3 1 2 4 5 5 7 7 6 6 7 7 10 18 23 24 24 25 24 25 27 28 29 29 32 34 33 30 29 30 31 31 30 28 26 25 24 23 23 23 22 22 20 20 20 19 17 16 14 12 12 10 8 8 8 8 8 8 8 8 7 7 7
3 5 5 4 4 2 6 4 2 1 1 4 5 4 3 2 2 1 3 1 1 3 3 3 1 0 3 3 5 7 7 6 3 5 5 7 16 23 24 23 23 22 23 25 26 28 30 31 32 32 30 28 28 29 30 30 29 28 26 24 23 24 25 25 24 22 20 20 18 17 17 15 13 13 11 10 8 8 9 8 8 8 8 8 8 8
3 3 3 3 2 2 5 5 5 5 3 3 4 5 4 4 4 3 3 3 2 2 2 3 1 2 1 2 5 6 5 8 14 18 16 12 11 16 17 18 20 18 17 18 20 24 27 28 30 29 28 28 28 29 29 29 28 27 26 24 25 27 29 27 26 24 22 21 18 16 16 16 16 14 12 11 10 9 10 10 9 9 9 9 9 9
4 3 6 4 3 3 3 2 4 6 3 2 2 5 3 4 5 2 2 5 4 1 0 2 1 2 2 2 6 5 5 10 15 20 22 20 19 18 17 15 15 16 15 14 14 18 22 25 27 28 27 28 29 29 29 29 28 26 25 25 26 28 29 26 25 26 24 22 20 17 17 18 18 16 12 11 11 11 11 11 10 10 10 10 10 10
3 4 7 5 3 2 3 2 2 3 2 1 2 3 4 4 7 5 1 1 4 3 1 1 1 2 2 2 7 6 6 8 9 12 17 20 23 22 19 16 13 11 12 13 12 11 14 18 22 25 27 29 29 30 30 31 31 28 27 28 26 26 26 25 26 27 26 24 22 21 21 21 20 17 13 12 12 12 13 13 12 11 11 11 11 10
4 2 7 2 2 2 1 4 4 3 3 4 2 5 2 3 4 5 2 3 5 2 3 2 1 2 1 1 5 6 4 5 6 6 8 13 19 19 16 15 12 8 8 9 7 6 10 14 16 17 20 24 26 28 30 32 32 29 27 28 24 20 21 23 26 29 27 24 22 23 24 25 23 18 12 13 15 14 15 15 15 13 12 11 11 11
4 1 7 2 2 4 6 8 4 5 3 4 3 3 3 3 1 2 3 2 2 2 2 3 1 1 2 3 3 3 2 2 3 4 6 6 10 14 17 19 19 16 14 12 10 11 15 15 15 13 13 15 18 23 27 29 30 29 27 27 23 19 19 22 26 30 29 25 23 26 27 26 25 21 16 16 19 18 16 16 16 14 13 11 11 10
3 3 4 5 2 2 5 5 1 5 5 4 3 2 3 3 4 2 2 3 3 3 2 1 2 1 4 5 4 5 6 5 6 4 4 5 6 8 13 17 18 19 18 17 16 15 14 12 12 11 9 9 12 17 21 23 25 25 25 25 22 20 20 22 27 30 29 27 26 27 29 26 25 24 20 20 22 19 16 17 17 15 14 12 10 10
3 3 3 5 4 3 2 0 3 3 2 3 4 3 3 2 2 2 1 2 4 4 3 2 1 4 5 4 4 6 6 6 8 7 5 8 10 8 11 15 16 17 17 16 15 13 10 8 7 6 5 6 8 11 13 15 16 18 19 19 17 18 20 23 27 27 28 28 25 26 30 28 26 26 23 21 22 19 16 17 18 16 14 12 11 10
1 3 3 1 3 2 2 2 1 3 3 4 3 1 1 2 4 4 1 1 2 4 4 4 3 6 6 2 2 4 4 5 7 10 9 13 17 15 12 13 14 14 15 14 14 12 9 7 5 4 4 5 7 8 10 11 11 12 12 12 12 15 18 21 24 24 26 26 25 27 31 29 26 25 23 21 21 21 17 17 17 15 13 13 12 11
2 4 3 1 0 2 3 2 3 1 4 6 4 2 3 2 3 5 4 3 1 3 2 4 3 5 5 1 3 3 3 2 6 10 11 13 18 18 16 14 13 13 12 12 12 11 10 7 6 5 4 5 6 6 7 7 7 8 8 8 10 12 14 17 20 20 21 23 24 27 29 29 27 24 21 22 23 22 19 17 16 15 14 14 12 12
2 4 3 1 3 3 4 4 4 3 5 6 4 2 3 1 2 4 5 4 3 3 2 4 2 4 5 5 4 3 7 5 4 10 14 15 15 16 18 17 16 16 14 12 12 11 11 9 8 7 5 4 4 4 4 4 5 5 6 8 10 11 13 15 16 17 19 21 23 27 28 28 26 22 20 21 21 20 19 20 19 17 16 15 13 14
1 1 3 3 2 3 3 4 5 5 4 4 3 4 3 2 3 3 1 2 3 3 4 5 2 6 5 5 6 6 8 8 5 10 17 20 19 18 20 20 19 19 17 16 14 11 10 9 7 7 5 4 3 2 3 3 4 4 6 9 11 11 12 13 13 14 18 21 24 28 29 28 26 23 21 19 18 19 21 22 22 20 19 18 16 16
2 2 3 5 4 3 2 2 3 2 2 2 3 6 5 4 5 3 1 4 2 2 3 5 4 5 4 7 8 6 5 5 6 10 16 20 22 22 22 22 21 20 18 16 14 11 9 7 6 5 5 4 2 2 1 1 2 3 5 8 9 10 10 10 11 13 19 23 25 29 31 30 28 25 23 20 19 20 21 21 22 23 23 22 21 21
3 3 2 5 5 5 5 4 4 3 3 1 1 5 5 3 4 5 4 3 3 3 3 1 4 3 3 7 8 7 5 3 3 9 15 19 22 22 21 21 20 18 16 14 13 12 10 8 7 5 4 3 2 2 2 2 3 4 5 5 7 9 9 8 9 13 18 21 24 26 27 27 26 25 24 24 23 23 24 24 24 26 26 25 23 23
4 3 1 4 4 2 4 2 1 4 5 3 1 3 4 3 5 6 4 2 4 6 1 4 1 5 1 5 6 7 6 5 4 1 8 12 14 16 17 17 16 15 15 13 13 13 12 11 9 6 5 5 4 4 4 4 4 4 4 4 5 7 8 8 9 11 15 18 21 22 22 22 23 24 26 27 26 26 27 26 25 25 26 25 23 24
6 1 1 3 6 4 4 4 5 6 5 4 3 3 4 4 5 6 2 0 4 6 4 2 5 5 2 5 5 7 6 5 5 6 2 3 5 9 12 12 13 14 14 14 13 13 12 11 9 8 7 7 7 7 6 6 5 5 4 5 5 6 8 9 9 9 11 15 18 19 19 18 18 20 23 26 26 26 28 28 25 24 24 24 24 26
4 1 1 3 5 5 5 5 6 6 5 5 5 4 4 5 6 6 3 2 6 6 4 7 9 5 3 4 5 7 6 7 12 15 11 8 6 6 7 7 7 8 11 13 12 12 12 12 11 10 9 8 8 8 8 7 6 5 5 5 5 7 9 9 9 9 9 11 12 14 15 14 14 15 18 21 23 26 26 25 24 24 25 24 24 25
3 2 0 3 5 3 4 4 5 7 7 7 7 5 4 7 7 6 4 3 6 7 4 7 10 5 5 4 6 10 14 17 20 20 19 18 13 10 10 10 8 7 6 8 10 12 12 12 12 12 11 10 9 8 8 7 7 7 7 7 7 7 7 7 7 8 9 10 11 13 13 12 12 13 14 15 17 18 16 15 16 18 18 17 16 17
4 3 1 4 4 1 1 3 4 7 9 8 6 6 5 5 5 3 3 3 2 5 5 7 7 1 4 5 8 14 20 22 20 19 21 22 20 17 14 12 11 11 9 8 8 9 10 11 11 12 12 11 10 8 8 7 7 8 9 10 10 8 7 5 4 5 7 8 9 9 9 9 9 10 10 10 10 10 9 8 9 9 10 10 9 9
3 4 2 3 3 2 3 0 3 5 6 3 3 3 2 3 6 5 5 6 4 4 5 4 3 2 4 5 6 11 15 17 18 20 21 22 22 23 22 17 14 14 13 12 12 12 12 11 11 11 11 11 11 9 8 7 8 9 9 9 9 8 7 6 6 7 7 8 8 8 8 8 8 8 9 10 11 11 10 10 10 9 9 10 10 10
3 4 3 2 3 3 5 3 3 3 1 3 5 2 2 5 10 10 6 6 6 5 4 4 3 3 5 5 6 9 11 14 18 22 24 24 23 24 24 23 20 17 14 12 12 14 16 16 16 15 13 12 12 11 8 8 8 9 8 8 8 7 7 6 7 8 8 8 8 8 9 9 9 9 10 11 11 11 10 9 9 9 9 10 10 10
3 4 3 2 4 2 2 5 4 2 3 2 3 3 4 6 12 15 9 6 7 7 5 6 6 5 5 6 8 13 15 18 22 25 25 25 24 22 23 24 23 20 18 14 11 9 11 12 13 15 15 13 12 12 10 8 6 7 7 8 7 7 6 7 8 9 8 7 7 7 8 10 10 9 10 11 11 11 10 10 10 9 10 10 10 10
4 3 3 2 3 2 1 3 2 4 2 2 4 3 3 2 6 11 9 8 7 5 4 5 5 5 6 6 7 10 15 19 23 25 23 21 21 21 20 21 21 20 19 17 14 11 9 7 4 6 8 8 8 9 8 6 6 5 6 8 8 7 8 9 10 10 9 8 8 8 8 9 10 10 10 11 12 12 12 12 12 12 12 12 11 10
6 4 2 2 2 3 3 2 1 0 0 1 3 2 1 2 2 4 5 3 4 5 4 3 4 6 7 6 3 4 5 13 17 18 19 18 17 16 16 16 17 15 14 14 12 11 10 8 5 1 3 3 3 5 5 4 4 4 5 7 8 7 8 9 9 9 10 10 10 10 9 9 10 10 11 12 12 12 13 12 11 10 10 9 9 9
3 3 4 4 2 3 5 3 2 1 3 5 4 4 4 5 5 3 5 2 4 7 6 4 4 5 7 9 5 5 3 6 7 8 13 15 13 12 12 12 13 12 11 11 9 8 9 8 6 3 2 3 2 4 7 8 7 4 4 5 5 3 4 7 8 8 8 9 10 10 10 11 11 10 11 12 12 12 12 10 9 8 7 8 8 9
7 2 3 4 2 3 5 4 3 4 4 5 6 7 10 10 5 2 5 1 3 5 6 8 8 8 8 10 9 4 4 3 1 5 10 11 10 11 10 9 10 10 10 10 9 8 8 8 5 3 2 2 2 4 6 8 10 12 12 10 7 5 6 7 8 8 8 9 8 8 9 10 11 11 11 12 12 12 12 11 10 9 8 8 10 11
7 4 4 4 2 2 4 3 2 3 3 4 5 7 14 12 0 4 2 3 3 2 7 11 11 10 11 11 11 8 5 2 1 4 8 8 9 10 9 10 11 11 11 11 11 10 10 10 8 6 6 6 6 7 6 6 7 9 12 14 15 14 14 12 12 11 11 10 8 8 8 8 9 9 10 10 11 11 11 11 10 10 9 10 12 13
4 3 3 3 3 3 4 3 1 1 2 4 6 11 16 8 4 5 4 6 5 6 8 12 12 10 11 12 10 7 4 2 1 5 7 9 10 10 10 11 11 12 13 13 14 15 14 14 13 12 12 12 11 11 10 9 7 6 7 9 11 15 17 18 18 17 16 16 13 11 12 12 12 11 11 12 12 12 12 11 11 11 11 13 14 15
3 3 3 2 2 3 3 3 1 1 2 7 10 12 12 4 3 2 3 6 8 9 9 10 10 8 8 8 7 5 2 2 5 8 10 11 12 13 14 14 14 14 14 15 16 17 17 17 17 17 17 16 15 14 14 13 11 8 8 8 9 11 13 15 17 18 18 19 18 18 17 17 18 18 17 17 17 16 15 14 14 14 15 15 15 16
1 2 2 2 2 2 3 3 3 2 4 9 8 7 7 3 3 4 6 7 7 8 8 7 7 5 4 4 4 5 6 8 10 12 13 15 16 16 17 18 18 18 18 18 19 20 21 21 22 22 21 20 19 17 16 15 14 12 11 10 11 12 13 14 16 18 19 19 20 20 20 19 19 20 21 21 20 18 18 17 17 17 17 17 17 17
2 1 1 1 1 2 1 1 2 2 4 9 7 4 4 6 7 8 7 6 5 6 6 5 4 3 4 5 5 7 9 10 12 14 16 17 19 20 20 21 20 20 19 19 20 21 22 23 23 24 24 23 22 20 18 16 15 13 12 11 12 13 15 16 17 18 20 21 21 22 22 21 20 19 20 21 20 20 19 18 18 18 18 18 18 18
2 3 5 2 2 2 3 3 5 4 5 12 13 10 8 10 9 8 7 6 5 3 3 3 3 3 5 6 8 9 10 12 14 15 17 18 19 20 21 22 23 23 22 20 19 19 20 22 22 22 23 22 22 22 22 20 18 16 14 13 13 13 14 16 17 18 19 20 21 22 23 23 22 21 21 22 22 23 23 22 22 21 20 19 19 19
2 5 7 4 3 5 7 7 7 7 8 11 13 11 10 9 7 6 6 5 3 2 2 3 4 4 5 6 8 9 10 12 14 15 17 18 20 20 21 22 23 23 23 23 22 21 21 22 23 23 23 22 21 20 21 22 22 21 20 18 18 17 16 16 17 17 18 19 19 20 21 22 22 22 22 22 24 24 25 25 25 24 22 22 21 20
3 3 4 3 3 4 4 4 5 6 8 10 11 10 8 6 4 3 3 2 1 1 3 4 5 5 6 7 9 10 12 13 14 16 18 19 20 22 22 24 24 23 23 22 21 20 21 22 23 23 23 23 22 21 20 20 21 21 22 22 23 23 23 22 22 21 20 20 20 20 20 21 21 21 22 22 23 23 24 25 25 25 25 24 23 21
3 4 3 3 3 2 2 3 4 7 8 9 8 7 5 4 2 1 1 2 3 4 5 6 7 8 9 10 12 13 14 15 16 18 20 21 22 23 24 25 25 24 23 21 19 19 20 21 22 23 23 23 22 21 20 20 20 20 21 22 23 24 25 26 26 26 26 25 25 24 23 23 23 23 23 23 23 23 23 23 24 24 25 24 23 22
2 2 1 3 3 2 2 1 2 5 4 4 5 4 3 3 2 1 1 2 4 5 7 8 10 11 12 13 14 16 17 18 19 20 21 22 23 24 24 24 25 25 25 23 21 21 21 22 23 23 24 24 23 22 22 22 22 21 21 22 23 23 25 26 26 27 28 28 28 28 28 27 27 26 26 26 26 25 24 23 22 23 23 22 22 22
2 1 1 4 4 0 3 2 2 3 3 2 2 2 2 3 1 1 2 4 5 6 8 10 11 12 13 13 15 16 18 19 20 21 23 24 24 25 25 25 26 27 26 24 23 22 22 23 24 24 24 24 23 24 25 25 24 24 23 24 25 26 27 28 28 29 29 29 29 29 29 29 29 28 28 28 29 28 27 25 24 24 23 22 21 20
2 2 3 4 4 4 5 4 3 3 3 2 1 1 1 1 3 4 5 6 6 7 8 10 11 12 13 14 15 17 19 21 22 23 24 25 25 26 27 27 28 28 27 25 25 25 25 25 25 25 25 25 25 25 26 27 27 27 27 28 29 29 30 31 32 33 33 32 32 32 31 30 30 29 29 29 29 28 28 28 27 26 25 24 24 23
Wind_Direction
144 180 252 223 220 220 213 197 203 197 157 197 245 217 245 262 274 273 269 289 304 109 185 188 144 138 175 181 166 164 173 180 175 166 168 177 183 185 186 188 190 192 191 185 183 185 187 188 186 185 187 192 198 200 200 197 194 189 186 186 182 183 191 201 207 202 200 207 211 215 216 215 214 207 204 202 200 207 227 257 254 238 229 219 211 212
84 168 234 224 220 213 190 187 210 219 164 214 242 228 256 246 263 280 277 307 16 99 330 154 131 152 178 171 157 153 169 192 176 167 176 185 189 191 192 190 189 192 188 181 181 182 184 189 190 191 194 198 201 199 199 197 191 190 191 191 188 191 197 202 208 203 202 211 215 215 210 209 211 203 211 226 217 223 253 251 234 220 216 214 210 206
44 236 244 231 212 189 152 144 157 203 189 190 216 177 265 263 281 302 307 326 9 89 318 206 127 139 244 202 188 171 179 198 188 183 185 186 190 195 195 191 186 185 183 182 182 183 185 188 190 194 197 200 200 196 196 194 191 192 193 193 194 198 198 200 206 205 206 210 209 208 201 203 208 198 204 238 263 268 277 267 253 247 226 218 215 208
247 246 237 186 136 163 232 180 139 30 20 189 216 157 266 282 333 309 309 335 355 58 151 119 102 5 324 356 259 214 198 198 195 193 191 189 192 196 196 194 188 182 181 183 185 187 189 192 195 196 197 199 196 192 194 194 193 192 191 192 197 200 198 198 202 205 208 204 195 193 191 196 207 197 197 227 253 252 257 264 269 271 252 236 233 219
242 248 227 116 126 161 225 256 183 231 296 261 230 166 198 265 231 231 286 329 348 5 59 77 59 344 346 92 234 251 259 205 191 191 198 199 199 203 201 196 192 187 183 183 187 191 191 194 198 196 196 196 191 190 192 192 192 191 190 194 200 200 196 198 202 201 201 195 186 187 187 190 197 195 203 228 232 224 224 235 243 240 232 238 254 248
253 261 256 247 195 155 185 244 212 188 231 298 251 198 191 210 227 255 335 17 28 5 357 55 66 302 318 273 228 245 228 199 185 190 204 202 201 211 208 198 195 192 188 188 191 193 192 194 195 195 195 193 188 189 191 191 193 193 195 199 201 198 195 199 201 196 194 192 188 188 189 190 192 191 194 216 225 218 215 221 217 204 198 215 246 255
260 280 268 228 233 152 166 242 226 171 156 301 252 204 167 150 172 324 45 67 82 301 313 46 111 226 317 313 259 264 212 203 194 207 214 199 201 214 211 202 197 194 193 194 196 197 196 195 194 195 195 192 189 190 191 192 197 199 202 205 201 196 195 198 196 193 193 194 193 195 196 197 195 188 178 181 200 204 206 213 208 195 192 209 251 258
256 313 8 163 186 136 161 234 215 155 130 241 239 157 129 129 154 166 94 93 180 215 322 9 95 135 314 269 268 276 198 209 219 227 231 203 204 212 212 207 201 198 197 197 200 202 201 199 197 197 197 196 194 193 194 197 200 204 208 207 199 193 196 197 193 191 195 197 198 202 207 209 208 199 179 173 182 187 191 199 198 201 207 219 246 243
235 287 301 180 139 145 194 213 182 149 140 240 215 147 140 149 148 136 102 95 360 88 317 325 39 109 271 274 298 31 146 208 227 220 223 212 207 208 210 209 205 202 200 201 204 205 205 203 201 200 200 199 198 197 199 202 205 208 211 206 196 194 196 195 191 191 196 202 206 209 213 214 211 204 187 175 175 174 175 181 182 192 201 208 212 213
256 243 235 157 152 200 218 210 165 157 190 228 171 122 70 68 85 82 95 101 35 60 228 284 343 110 272 289 316 22 104 205 237 231 223 218 211 206 207 209 205 202 202 204 206 207 207 205 200 199 200 200 201 203 205 208 211 213 212 205 196 194 195 192 190 193 197 204 212 219 220 218 213 202 188 175 172 168 170 171 173 179 182 184 186 190
290 294 236 160 191 213 204 191 161 167 183 134 109 80 53 36 32 44 56 79 64 18 250 260 264 115 269 288 278 318 154 211 244 255 229 217 213 209 208 207 204 201 202 203 204 206 206 201 197 197 201 203 205 207 209 212 216 219 214 203 193 188 187 188 191 197 201 206 214 223 222 221 219 204 189 180 175 171 168 167 168 171 171 170 172 178
325 328 266 244 229 186 128 131 126 65 61 94 86 74 84 17 8 26 357 43 86 255 256 253 276 97 157 272 283 274 274 247 231 231 219 201 198 205 207 207 204 201 200 200 202 204 203 199 198 200 204 207 207 208 212 215 216 212 202 193 187 184 185 193 200 202 205 209 215 222 223 222 219 204 192 185 179 173 169 167 167 168 169 165 160 159
311 256 281 306 263 159 115 118 333 10 31 85 93 80 93 25 7 18 312 360 145 236 254 240 95 97 211 247 289 300 309 301 249 222 215 195 188 195 201 203 203 200 199 200 202 204 204 202 202 204 208 210 211 212 213 212 208 201 194 188 186 188 192 202 208 206 209 213 215 220 226 225 216 203 192 183 177 174 170 167 165 165 166 163 154 146
293 298 320 323 289 186 138 140 206 267 69 127 133 121 127 107 80 239 261 294 215 236 270 275 185 211 270 279 312 317 323 330 9 81 110 171 184 189 191 192 195 197 198 201 206 208 207 207 207 208 212 215 218 217 212 209 210 209 205 197 194 199 201 204 210 210 211 216 218 223 232 230 214 200 189 177 174 177 173 166 164 163 162 161 153 144
148 310 282 206 253 191 164 168 169 157 137 175 165 132 141 150 147 208 217 181 208 229 283 294 221 154 196 286 310 314 345 34 57 74 84 94 130 154 161 169 178 182 187 197 206 210 211 211 211 213 218 222 223 218 212 211 212 213 214 209 204 206 204 202 207 208 210 218 222 226 235 233 216 199 186 175 174 182 177 169 171 170 164 162 158 152
133 240 251 255 270 167 177 226 148 115 93 238 140 105 143 181 146 123 178 171 170 137 351 277 214 184 195 284 314 327 29 42 57 76 82 83 94 108 114 123 144 157 172 192 203 211 215 215 215 217 220 224 223 217 214 216 216 219 227 229 217 206 202 204 209 208 209 215 215 217 227 229 215 198 188 182 181 188 184 177 181 177 169 169 168 164
117 251 274 319 339 169 179 215 112 100 165 193 126 158 209 172 120 106 152 54 78 111 242 241 189 312 348 335 328 351 40 29 33 69 83 91 96 96 92 93 103 122 149 170 180 197 215 219 221 222 223 225 222 217 218 222 226 230 238 239 225 207 202 209 214 211 210 212 210 213 219 220 211 197 191 191 189 196 193 185 188 185 178 178 175 172
146 243 288 343 75 310 75 102 66 52 120 121 177 203 171 85 92 104 113 15 50 139 266 327 176 304 39 149 317 343 37 26 3 30 65 95 108 111 115 125 135 147 158 163 165 209 235 233 232 231 230 230 226 223 224 227 232 236 237 236 228 215 209 210 213 212 211 211 211 215 216 215 211 201 197 199 196 205 207 193 189 189 183 182 180 178
130 161 290 282 170 309 16 75 45 344 38 111 179 190 93 98 150 94 119 129 107 175 273 341 340 265 182 207 275 286 209 153 57 34 27 51 101 126 138 145 153 168 182 180 181 211 225 225 231 238 237 231 226 228 230 232 235 237 236 235 235 234 226 216 211 209 210 211 212 214 214 212 210 203 205 209 202 205 213 204 194 190 186 185 186 184
94 139 266 287 253 315 12 55 47 314 340 27 50 19 40 125 157 154 142 146 144 165 207 334 3 296 229 217 213 224 223 184 134 102 68 56 74 121 141 143 147 156 164 166 172 191 204 209 222 229 226 220 218 222 228 233 237 239 240 241 245 244 231 215 209 208 212 219 222 216 212 212 210 205 206 212 209 209 214 212 205 198 193 194 197 195
54 119 202 286 326 32 26 46 169 194 318 20 39 10 352 38 115 137 99 94 128 142 168 156 77 274 253 210 201 219 220 195 160 143 139 127 119 128 136 137 144 149 151 154 161 170 176 183 196 198 192 199 204 205 211 220 227 234 237 239 242 242 229 216 214 216 221 227 229 219 212 213 213 209 208 210 213 216 216 217 215 208 205 210 215 217
90 132 163 286 5 66 214 252 214 201 167 127 105 64 129 139 122 122 130 306 105 125 161 155 157 263 260 192 234 226 209 222 184 155 150 146 141 143 141 137 140 143 143 149 155 159 166 172 176 175 169 170 174 175 177 187 197 209 220 225 225 230 230 225 225 229 230 230 228 217 213 215 215 213 211 208 214 220 220 222 222 216 217 222 225 232
136 105 102 97 73 201 243 323 19 91 124 105 86 94 129 128 103 121 177 228 87 101 142 120 120 260 268 327 301 222 151 229 197 158 142 144 148 147 146 146 147 146 147 148 151 157 162 166 171 169 161 158 163 164 168 181 192 198 210 223 222 222 227 231 233 235 233 230 223 212 210 215 218 218 213 209 215 219 219 223 224 223 227 227 230 241
84 82 87 5 316 319 314 332 6 45 71 65 30 29 76 65 109 143 176 179 129 140 141 85 82 259 284 341 348 109 108 102 163 157 142 142 149 148 147 151 155 155 155 153 154 155 154 158 164 162 162 170 173 180 193 211 224 217 208 214 221 224 229 233 235 232 226 222 215 207 207 213 218 219 214 213 217 218 219 222 223 228 231 226 230 242
38 96 106 94 31 4 357 340 346 4 34 56 350 336 11 51 74 101 129 77 104 180 154 115 168 253 285 356 18 55 84 88 115 150 149 149 153 157 157 159 160 158 157 156 154 152 149 155 164 162 161 162 163 187 208 218 237 232 202 198 211 225 234 237 234 221 212 211 209 206 206 210 215 218 216 216 219 221 225 225 223 230 232 227 233 242
113 119 110 121 146 163 158 219 251 289 358 28 345 339 360 37 52 76 80 67 107 192 115 120 189 243 311 3 13 20 52 80 111 141 150 154 159 164 166 166 167 164 161 158 155 155 156 160 162 154 143 132 124 134 149 160 182 185 181 188 204 222 234 236 227 209 203 206 209 209 209 211 214 216 218 219 220 223 230 229 227 233 234 233 239 245
99 69 86 126 142 172 177 202 216 157 87 73 322 344 351 7 52 85 90 90 158 140 73 208 191 155 7 355 355 346 355 25 146 156 158 161 165 168 168 168 169 165 159 153 148 150 155 159 161 151 138 136 131 131 139 138 144 161 175 181 197 218 231 227 212 204 204 207 211 213 213 214 215 217 220 222 221 224 229 229 229 235 236 236 242 249
97 43 45 99 80 142 164 155 139 101 98 123 137 15 352 3 62 83 95 131 133 110 80 276 139 104 12 334 342 332 336 335 317 249 171 170 169 171 171 168 166 161 153 145 140 142 144 148 153 149 146 157 160 159 158 152 152 163 179 186 197 216 227 222 210 208 209 211 215 217 217 219 222 222 221 221 222 225 228 230 233 236 235 237 246 254
111 75 236 94 61 58 83 76 78 87 86 84 73 33 2 21 73 97 105 190 122 129 180 180 88 84 325 324 330 325 328 328 351 15 65 141 148 164 167 166 169 166 158 150 145 143 141 141 142 141 143 148 152 157 156 158 170 178 186 194 199 207 217 221 221 219 215 214 219 223 226 230 231 228 222 219 221 226 229 231 236 239 239 242 251 257
108 99 264 100 79 57 48 64 96 107 103 71 46 31 47 64 79 86 63 38 89 102 128 112 90 62 335 321 321 339 8 41 55 58 58 59 73 112 119 118 140 158 164 164 159 153 147 143 143 141 139 139 143 151 153 158 169 181 196 205 202 205 211 215 221 226 224 221 222 226 233 236 231 226 223 221 225 231 232 230 234 242 247 250 253 255
88 134 250 80 81 48 26 58 97 107 107 82 46 26 69 81 60 49 41 37 72 87 102 99 85 46 354 2 9 29 48 54 53 49 45 46 55 73 76 69 77 101 135 158 166 169 163 154 150 148 146 144 142 141 145 154 164 172 187 198 200 206 208 206 214 220 222 224 226 227 230 229 222 219 222 224 230 236 234 224 226 236 243 243 243 246
67 115 45 63 93 204 338 82 105 94 84 70 38 8 22 64 70 54 38 22 84 135 120 85 87 56 318 359 31 43 50 50 44 37 39 45 51 59 59 57 70 84 89 102 134 159 161 155 154 155 156 156 151 143 141 148 161 168 175 182 189 194 191 182 185 193 196 200 206 211 213 213 213 212 212 212 212 213 207 198 203 211 215 216 219 226
75 117 117 87 119 237 296 103 129 86 69 39 323 328 6 92 111 94 46 19 24 118 123 107 131 205 316 2 46 51 50 49 44 41 43 46 52 60 64 65 73 81 83 89 102 116 124 125 127 135 147 153 152 149 148 154 162 166 168 173 179 184 180 172 163 162 170 177 180 182 184 188 192 193 194 197 196 195 195 195 198 198 200 206 209 214
54 101 125 115 128 220 285 334 50 59 113 250 274 260 172 137 112 94 58 14 17 44 102 118 92 27 5 29 66 71 64 60 57 54 52 52 56 64 68 69 70 71 74 83 93 101 106 106 104 108 118 132 139 137 136 149 162 166 169 172 177 181 185 190 186 179 179 184 186 184 183 186 189 192 197 201 203 207 211 212 212 210 210 214 221 229
73 91 126 104 107 167 303 30 49 261 229 250 353 65 119 122 104 95 74 28 24 31 52 62 42 21 35 65 83 82 74 67 63 59 55 54 55 61 67 66 63 59 58 60 65 81 95 98 98 103 105 113 129 133 122 120 139 162 176 180 183 190 201 210 209 201 199 201 201 200 197 196 199 205 211 213 215 221 229 235 237 235 237 242 247 251
133 118 136 110 99 142 84 69 146 228 251 355 353 35 89 52 72 82 62 19 11 14 34 56 38 32 57 81 101 89 71 64 62 57 54 54 53 54 60 61 57 55 55 56 54 53 55 48 56 103 113 116 132 138 127 112 116 140 170 180 184 194 206 214 215 212 211 213 215 214 212 210 213 218 220 220 222 225 232 240 246 250 253 255 255 256
145 130 131 129 137 144 120 98 142 181 359 267 294 320 103 302 316 100 97 30 358 1 11 47 33 31 48 60 109 153 75 56 54 46 44 51 51 50 54 55 53 54 58 64 65 63 58 48 32 343 267 254 193 184 192 178 142 130 155 174 179 184 194 201 206 210 211 213 216 218 221 226 230 231 229 226 226 228 232 238 246 249 250 250 252 258
123 153 168 169 185 116 103 99 92 127 211 223 252 285 309 304 279 166 117 88 350 2 23 76 64 44 44 39 51 188 181 48 35 13 28 42 43 41 45 43 42 42 43 50 60 65 63 60 65 67 335 314 291 257 252 243 239 243 222 191 176 187 225 216 202 195 196 200 207 214 219 224 229 237 241 237 233 234 237 242 249 252 258 268 274 280
44 56 122 129 145 118 119 138 166 184 220 243 253 283 320 324 291 134 86 52 317 15 65 93 77 62 61 47 48 99 119 81 306 334 19 32 28 25 23 19 21 21 18 19 22 26 26 21 30 55 28 6 360 327 295 263 256 260 259 249 235 250 275 250 216 206 204 198 197 205 216 223 227 232 238 238 235 237 244 252 258 261 269 278 282 285
27 21 52 82 101 125 128 133 154 183 232 263 247 292 327 332 341 118 92 240 227 99 93 97 83 70 71 65 58 63 77 116 246 338 5 11 6 3 356 351 352 349 346 344 339 339 342 341 340 337 334 333 326 326 322 300 284 281 274 265 255 254 263 260 247 242 235 220 206 205 213 221 225 228 232 233 234 239 244 249 253 256 263 272 277 281
17 14 43 85 80 63 101 105 79 208 256 292 293 321 337 342 136 145 222 214 169 127 103 93 87 75 66 68 72 73 81 102 7 333 338 339 336 332 330 329 327 325 325 320 312 310 311 310 311 314 316 316 310 306 305 303 306 306 293 280 263 254 254 254 254 255 248 239 235 233 233 235 236 238 241 243 245 246 247 248 250 255 265 275 280 284
12 1 15 61 54 39 90 101 80 180 329 328 319 336 355 8 176 182 191 161 130 117 105 89 84 77 58 56 61 57 35 357 328 317 318 320 317 316 316 315 312 309 308 304 302 302 301 298 298 297 297 298 297 295 294 294 294 291 283 277 265 256 252 248 247 248 248 246 245 245 245 246 246 247 250 253 255 254 254 255 258 262 268 273 278 282
32 38 30 27 31 49 72 76 106 172 333 342 329 335 8 38 166 136 115 117 108 103 98 83 77 73 47 21 7 345 325 317 312 308 307 305 306 308 308 310 311 310 305 301 299 299 299 299 298 296 294 293 291 290 289 286 284 282 278 271 262 258 259 256 250 247 247 245 243 243 245 247 248 248 250 252 255 256 255 256 258 261 264 267 271 276
7 80 144 309 348 86 93 64 126 199 341 22 58 98 67 80 115 122 111 100 89 84 76 64 57 36 356 337 327 316 309 306 303 302 301 300 299 299 299 300 305 307 308 306 302 299 299 297 296 294 291 288 286 285 283 280 278 274 268 262 257 252 252 255 255 252 249 245 241 241 242 244 245 246 246 247 249 251 252 253 255 257 259 261 265 269
8 110 121 93 44 89 109 124 138 141 70 65 81 99 100 93 95 95 91 91 92 75 38 22 3 333 324 317 309 306 304 302 299 300 300 298 296 295 293 292 293 295 300 301 299 299 299 297 296 295 292 288 284 281 278 277 275 272 266 260 256 253 250 251 251 250 249 247 244 243 242 242 240 241 243 244 246 250 253 256 259 260 259 260 264 268
59 100 106 101 93 76 76 100 129 126 100 91 92 97 99 99 93 81 72 75 82 65 353 329 316 309 304 298 297 299 299 298 297 297 297 296 296 296 294 292 291 291 293 293 294 294 293 293 293 294 294 294 291 285 281 278 276 274 271 268 265 262 261 259 256 252 249 247 244 243 242 241 240 241 243 245 247 249 251 255 258 258 260 263 267 270
5 53 79 99 115 101 91 119 142 127 113 109 106 102 97 93 86 68 53 40 15 300 299 300 298 294 293 293 295 297 298 299 299 298 298 298 298 299 299 298 296 294 293 292 294 294 292 291 292 293 294 295 295 295 291 286 282 279 276 273 271 268 267 267 266 263 260 255 252 248 245 244 243 243 244 246 249 251 252 254 256 257 260 263 265 267
340 24 62 88 88 110 188 196 156 136 126 112 106 107 104 97 84 10 314 291 285 284 290 296 297 295 296 298 297 298 299 300 299 298 298 299 299 300 301 300 298 297 294 290 288 287 287 287 288 289 291 293 295 296 292 285 281 279 276 274 273 271 269 268 267 266 265 264 262 260 258 256 253 250 249 248 249 251 252 253 254 254 254 254 255 259
329 3 79 98 67 29 303 272 149 149 150 118 106 115 127 126 138 208 232 265 280 283 288 294 295 295 298 299 299 299 299 298 298 298 298 299 300 300 299 298 297 297 295 291 285 282 281 282 283 284 285 286 287 286 284 282 279 277 276 276 275 273 272 270 268 267 265 264 264 263 262 262 260 258 256 254 253 251 251 250 249 248 247 248 251 257
29 55 116 88 79 253 254 238 154 169 223 225 134 134 147 147 161 263 279 290 296 295 297 300 299 297 298 298 298 298 298 297 298 298 298 299 299 298 297 296 296 295 294 291 286 281 279 279 280 280 280 279 279 279 279 280 281 281 281 281 281 281 279 276 273 270 266 263 261 260 259 259 258 257 256 256 255 254 253 253 252 251 250 251 253 256
79 147 150 127 151 203 221 212 191 210 244 235 162 154 176 276 313 313 313 314 313 310 310 311 310 308 307 306 304 303 301 301 301 300 298 297 296 293 291 290 289 289 288 286 283 281 280 279 278 278 277 276 276 276 277 279 281 282 283 283 282 282 281 279 277 274 270 266 261 258 256 255 254 254 254 254 253 254 254 255 255 255 254 254 254 255
Height
1468 1471 1473 1473 1472 1470 1470 1471 1471 1471 1473 1474 1475 1476 1476 1475 1469 1461 1456 1454 1453 1456 1459 1460 1459 1460 1463 1464 1465 1467 1469 1471 1471 1472 1473 1474 1475 1476 1478 1479 1481 1482 1484 1487 1489 1491 1492 1493 1495 1497 1498 1500 1502 1503 1504 1506 1508 1510 1510 1512 1513 1515 1517 1518 1520 1520 1521 1521 1522 1522 1522 1523 1524 1524 1524 1525 1526 1526 1526 1526 1526 1526 1526 1526 1526 1526
1469 1473 1472 1468 1467 1467 1469 1472 1471 1472 1474 1473 1474 1476 1475 1473 1466 1457 1455 1455 1453 1454 1459 1461 1459 1460 1463 1464 1465 1466 1469 1469 1469 1470 1471 1473 1474 1475 1477 1479 1482 1483 1485 1488 1488 1489 1490 1492 1494 1496 1497 1499 1501 1501 1503 1505 1507 1509 1510 1512 1513 1514 1516 1518 1519 1520 1521 1521 1522 1522 1523 1523 1524 1524 1524 1524 1525 1525 1525 1525 1525 1525 1525 1525 1526 1526
1472 1472 1466 1464 1467 1469 1471 1472 1472 1472 1473 1473 1474 1474 1472 1470 1465 1458 1454 1454 1453 1453 1458 1459 1459 1464 1466 1465 1465 1464 1465 1466 1466 1467 1468 1470 1472 1474 1475 1477 1481 1483 1484 1486 1488 1489 1489 1490 1492 1494 1496 1499 1500 1501 1503 1505 1507 1508 1510 1512 1513 1514 1516 1517 1519 1520 1520 1521 1522 1522 1523 1523 1523 1523 1523 1524 1524 1524 1524 1524 1524 1524 1524 1524 1525 1526
1474 1467 1461 1464 1466 1467 1469 1469 1470 1471 1471 1472 1471 1471 1470 1468 1467 1464 1457 1455 1456 1456 1459 1457 1460 1466 1467 1467 1466 1464 1465 1466 1467 1469 1469 1470 1470 1471 1473 1474 1477 1480 1481 1484 1488 1490 1491 1491 1492 1493 1495 1498 1500 1501 1503 1504 1506 1507 1509 1511 1513 1514 1515 1517 1518 1519 1520 1521 1522 1522 1522 1523 1523 1523 1523 1523 1524 1524 1524 1524 1524 1524 1523 1524 1524 1525
1469 1461 1459 1463 1464 1465 1466 1467 1469 1468 1469 1470 1468 1467 1467 1466 1466 1466 1462 1459 1458 1460 1460 1459 1464 1470 1468 1469 1469 1466 1467 1468 1469 1471 1471 1471 1472 1473 1475 1474 1476 1478 1480 1483 1485 1487 1489 1491 1492 1493 1495 1497 1499 1500 1502 1504 1505 1507 1508 1510 1512 1513 1514 1516 1517 1519 1520 1521 1521 1522 1522 1523 1523 1523 1523 1523 1524 1524 1525 1525 1525 1524 1524 1524 1524 1524
1464 1458 1459 1461 1462 1464 1466 1467 1467 1467 1469 1469 1464 1462 1463 1463 1463 1464 1463 1462 1463 1465 1464 1463 1472 1478 1472 1470 1470 1467 1468 1469 1470 1471 1470 1471 1473 1475 1476 1475 1476 1478 1480 1482 1483 1485 1487 1490 1493 1494 1495 1497 1498 1500 1502 1504 1505 1507 1508 1510 1511 1512 1513 1515 1517 1518 1520 1521 1522 1522 1523 1523 1523 1523 1523 1524 1524 1525 1525 1525 1525 1525 1524 1524 1524 1524
1460 1456 1457 1458 1460 1464 1467 1467 1465 1467 1471 1469 1462 1460 1460 1462 1463 1463 1461 1462 1468 1471 1468 1466 1473 1481 1475 1469 1469 1469 1469 1469 1470 1471 1471 1472 1473 1474 1474 1474 1475 1477 1480 1482 1484 1486 1488 1489 1492 1493 1495 1496 1498 1500 1502 1504 1505 1506 1507 1508 1510 1511 1513 1515 1517 1519 1521 1522 1523 1524 1525 1525 1525 1525 1524 1525 1526 1525 1525 1525 1525 1525 1524 1524 1524 1525
1458 1456 1457 1458 1460 1463 1466 1465 1463 1464 1467 1466 1461 1460 1460 1460 1462 1463 1461 1463 1468 1470 1468 1467 1470 1477 1477 1471 1470 1472 1471 1472 1471 1471 1472 1472 1472 1473 1473 1474 1475 1476 1478 1481 1483 1485 1487 1489 1490 1492 1493 1495 1497 1499 1501 1503 1504 1505 1506 1508 1509 1511 1514 1516 1518 1520 1522 1523 1525 1526 1527 1527 1527 1527 1526 1526 1526 1527 1526 1526 1525 1525 1525 1524 1525 1525
1456 1455 1455 1457 1460 1462 1461 1458 1458 1460 1461 1460 1459 1460 1459 1459 1461 1463 1462 1465 1470 1471 1471 1472 1471 1477 1479 1471 1470 1472 1471 1473 1472 1469 1471 1470 1470 1471 1472 1473 1474 1476 1478 1480 1482 1484 1486 1488 1490 1492 1493 1495 1497 1499 1500 1502 1503 1505 1506 1508 1510 1512 1515 1517 1520 1522 1524 1525 1526 1527 1528 1528 1528 1528 1528 1527 1527 1527 1527 1527 1526 1525 1525 1525 1525 1526
1455 1454 1453 1455 1458 1457 1453 1452 1454 1456 1456 1456 1458 1460 1460 1463 1466 1467 1466 1465 1470 1475 1477 1476 1474 1479 1482 1471 1467 1470 1470 1472 1471 1467 1468 1468 1469 1470 1470 1472 1474 1476 1478 1479 1482 1484 1486 1488 1489 1491 1493 1495 1497 1498 1500 1502 1504 1505 1506 1509 1511 1513 1516 1519 1521 1523 1525 1526 1527 1528 1528 1528 1529 1529 1529 1528 1528 1528 1528 1527 1527 1526 1526 1526 1526 1526
1453 1452 1452 1452 1453 1451 1449 1451 1454 1453 1455 1455 1457 1459 1461 1466 1467 1469 1472 1469 1475 1483 1480 1478 1476 1479 1484 1475 1468 1471 1470 1470 1470 1466 1466 1467 1468 1470 1470 1472 1474 1475 1477 1479 1482 1485 1487 1489 1490 1491 1493 1494 1496 1498 1500 1501 1503 1505 1507 1510 1513 1515 1519 1521 1523 1524 1524 1525 1526 1526 1527 1527 1529 1529 1529 1529 1528 1528 1528 1528 1527 1527 1527 1527 1527 1527
1454 1452 1452 1449 1447 1448 1448 1451 1453 1454 1456 1456 1457 1460 1464 1470 1472 1473 1477 1475 1483 1490 1482 1479 1480 1478 1483 1479 1471 1471 1469 1470 1470 1465 1462 1463 1466 1469 1470 1471 1473 1475 1477 1480 1483 1485 1487 1488 1489 1491 1492 1494 1496 1497 1498 1501 1503 1504 1506 1510 1514 1518 1521 1523 1524 1524 1523 1524 1524 1525 1526 1526 1528 1529 1529 1529 1528 1528 1528 1528 1528 1528 1528 1528 1528 1528
1454 1451 1451 1448 1446 1446 1448 1452 1455 1455 1457 1456 1458 1464 1471 1480 1482 1482 1487 1486 1488 1489 1480 1480 1482 1480 1481 1478 1472 1472 1469 1468 1468 1463 1461 1461 1462 1465 1468 1471 1473 1476 1478 1480 1483 1485 1487 1488 1489 1490 1492 1493 1495 1496 1498 1501 1501 1502 1506 1512 1517 1519 1520 1521 1522 1522 1522 1523 1524 1525 1526 1526 1527 1528 1529 1528 1529 1529 1529 1529 1529 1529 1529 1529 1529 1529
1457 1453 1450 1448 1446 1444 1447 1453 1457 1457 1457 1456 1458 1464 1472 1484 1491 1493 1499 1499 1492 1486 1482 1482 1482 1482 1483 1478 1473 1474 1471 1468 1465 1461 1460 1461 1462 1463 1466 1470 1473 1476 1478 1480 1483 1485 1487 1488 1489 1490 1491 1492 1494 1496 1499 1500 1500 1502 1506 1511 1514 1516 1516 1516 1517 1519 1521 1523 1524 1525 1525 1526 1527 1528 1528 1528 1529 1530 1530 1530 1530 1531 1531 1530 1530 1530
1463 1462 1452 1448 1447 1445 1445 1448 1450 1452 1454 1457 1458 1460 1466 1474 1481 1488 1491 1490 1488 1486 1484 1482 1480 1482 1484 1480 1476 1474 1472 1468 1465 1461 1461 1463 1465 1466 1468 1471 1474 1476 1479 1481 1484 1486 1487 1489 1489 1490 1491 1492 1495 1497 1499 1499 1500 1504 1507 1508 1510 1511 1511 1512 1514 1517 1520 1523 1524 1524 1525 1527 1528 1528 1528 1528 1529 1530 1531 1531 1532 1532 1532 1532 1532 1531
1465 1462 1449 1445 1446 1444 1446 1445 1445 1448 1454 1460 1461 1460 1463 1462 1466 1480 1488 1485 1484 1485 1484 1482 1481 1483 1483 1478 1476 1475 1472 1470 1467 1464 1464 1466 1468 1470 1472 1474 1475 1475 1478 1482 1486 1487 1488 1489 1490 1491 1491 1493 1495 1497 1497 1498 1500 1505 1507 1506 1507 1509 1511 1514 1515 1516 1518 1520 1522 1523 1525 1527 1528 1528 1528 1528 1529 1531 1532 1532 1533 1533 1533 1533 1533 1533
1464 1459 1448 1446 1445 1444 1445 1445 1445 1448 1453 1460 1461 1459 1461 1459 1459 1474 1490 1491 1487 1485 1487 1487 1484 1483 1484 1480 1476 1475 1472 1472 1472 1470 1469 1470 1470 1473 1475 1476 1479 1480 1481 1483 1485 1487 1489 1490 1490 1491 1492 1493 1495 1496 1496 1497 1499 1503 1505 1503 1504 1508 1511 1514 1515 1515 1517 1520 1521 1523 1524 1526 1528 1528 1528 1529 1531 1532 1532 1533 1533 1534 1534 1534 1534 1534
1457 1457 1451 1448 1447 1444 1443 1444 1445 1447 1449 1456 1459 1456 1458 1461 1461 1468 1482 1492 1493 1491 1490 1491 1488 1486 1488 1486 1480 1477 1475 1475 1475 1474 1473 1473 1472 1474 1476 1477 1481 1485 1485 1485 1486 1489 1491 1491 1491 1491 1492 1494 1496 1496 1496 1497 1499 1502 1504 1502 1503 1508 1510 1511 1513 1515 1517 1520 1522 1522 1523 1525 1526 1527 1528 1529 1531 1533 1533 1533 1533 1534 1534 1535 1535 1536
1451 1456 1454 1449 1449 1446 1442 1444 1449 1449 1448 1451 1454 1452 1456 1463 1466 1469 1479 1488 1494 1496 1494 1493 1495 1492 1488 1485 1481 1479 1479 1476 1476 1477 1476 1475 1474 1476 1477 1478 1480 1483 1485 1485 1486 1489 1490 1489 1490 1491 1491 1493 1494 1495 1496 1497 1499 1502 1502 1502 1503 1507 1508 1509 1511 1513 1515 1517 1519 1520 1521 1524 1525 1526 1527 1529 1531 1532 1533 1533 1533 1534 1535 1535 1536 1537
1450 1456 1457 1450 1448 1448 1446 1450 1457 1456 1450 1449 1452 1453 1455 1461 1466 1469 1475 1479 1484 1495 1499 1494 1495 1491 1483 1481 1479 1478 1479 1477 1476 1478 1478 1478 1479 1479 1479 1480 1481 1482 1483 1484 1485 1487 1488 1488 1489 1490 1491 1492 1493 1494 1495 1496 1499 1500 1501 1502 1503 1505 1506 1507 1508 1510 1512 1514 1516 1519 1521 1523 1524 1525 1526 1527 1529 1531 1532 1533 1534 1534 1535 1536 1537 1537
1451 1456 1458 1452 1448 1451 1454 1456 1459 1459 1455 1454 1456 1459 1461 1464 1467 1469 1474 1478 1477 1485 1495 1495 1496 1491 1479 1476 1477 1476 1478 1477 1475 1476 1477 1478 1480 1482 1483 1483 1483 1484 1484 1485 1486 1487 1488 1488 1489 1490 1491 1492 1493 1494 1495 1496 1498 1499 1500 1501 1502 1503 1504 1505 1507 1509 1511 1513 1514 1517 1520 1522 1524 1525 1526 1526 1528 1530 1531 1532 1533 1534 1535 1536 1537 1537
1451 1454 1456 1456 1455 1457 1459 1456 1456 1457 1457 1458 1460 1465 1468 1468 1468 1469 1477 1483 1477 1479 1488 1491 1494 1489 1477 1474 1477 1476 1477 1477 1475 1474 1475 1477 1478 1482 1484 1485 1486 1486 1487 1488 1487 1488 1489 1489 1490 1491 1492 1493 1494 1495 1495 1497 1498 1498 1499 1500 1501 1502 1503 1504 1506 1508 1510 1512 1514 1516 1519 1522 1524 1525 1526 1526 1527 1529 1530 1531 1533 1534 1535 1535 1536 1537
1449 1452 1456 1460 1461 1461 1460 1457 1458 1458 1457 1457 1460 1466 1468 1467 1467 1468 1473 1478 1478 1483 1487 1486 1489 1486 1476 1475 1477 1475 1476 1477 1476 1476 1476 1477 1479 1480 1483 1485 1487 1488 1489 1490 1490 1489 1490 1490 1491 1492 1493 1494 1494 1495 1496 1496 1497 1498 1499 1499 1500 1501 1502 1503 1505 1507 1510 1511 1513 1515 1518 1521 1523 1525 1526 1526 1527 1529 1530 1531 1532 1533 1534 1535 1536 1537
1449 1454 1459 1463 1465 1463 1459 1457 1457 1457 1457 1459 1462 1466 1466 1467 1468 1469 1471 1472 1475 1483 1483 1484 1491 1487 1476 1476 1477 1475 1477 1478 1479 1479 1477 1479 1481 1482 1484 1486 1488 1490 1490 1492 1492 1491 1491 1491 1493 1493 1494 1494 1494 1495 1495 1496 1497 1498 1499 1499 1500 1500 1502 1503 1504 1507 1509 1510 1512 1515 1517 1520 1522 1524 1526 1526 1528 1529 1530 1530 1531 1532 1533 1534 1535 1536
1450 1457 1460 1463 1470 1472 1468 1465 1461 1458 1461 1465 1469 1469 1467 1467 1468 1470 1473 1471 1474 1482 1480 1480 1491 1489 1478 1480 1480 1478 1480 1481 1482 1482 1480 1481 1483 1485 1487 1489 1490 1491 1491 1492 1493 1493 1492 1493 1494 1493 1493 1494 1495 1495 1496 1496 1497 1497 1498 1500 1500 1500 1501 1502 1504 1505 1507 1508 1510 1513 1515 1517 1520 1522 1524 1527 1529 1530 1529 1529 1530 1531 1532 1533 1534 1534
1453 1460 1460 1461 1469 1475 1476 1475 1469 1465 1468 1472 1473 1471 1469 1469 1466 1467 1472 1471 1474 1485 1483 1479 1487 1486 1481 1483 1484 1483 1484 1483 1484 1484 1483 1484 1485 1486 1488 1489 1491 1492 1492 1493 1493 1493 1493 1494 1495 1494 1493 1494 1495 1496 1496 1497 1497 1498 1499 1500 1501 1501 1501 1502 1503 1504 1505 1507 1509 1511 1513 1515 1517 1519 1522 1525 1528 1528 1527 1528 1530 1531 1531 1532 1533 1533
1456 1463 1463 1460 1462 1467 1469 1471 1469 1468 1471 1475 1474 1472 1472 1473 1470 1468 1472 1474 1476 1482 1484 1482 1485 1484 1485 1489 1489 1488 1487 1486 1486 1485 1484 1484 1485 1486 1488 1489 1490 1492 1493 1493 1493 1493 1493 1494 1495 1494 1493 1494 1495 1497 1497 1497 1498 1498 1499 1500 1501 1501 1501 1502 1503 1504 1505 1506 1508 1510 1512 1515 1516 1518 1520 1522 1524 1525 1526 1527 1528 1529 1530 1531 1532 1532
1456 1462 1465 1465 1465 1467 1468 1468 1467 1468 1472 1476 1475 1474 1473 1473 1470 1468 1471 1476 1478 1480 1483 1486 1486 1486 1490 1494 1493 1492 1491 1489 1488 1486 1485 1486 1486 1487 1488 1489 1490 1491 1492 1493 1493 1493 1494 1494 1494 1494 1494 1495 1496 1497 1498 1498 1498 1499 1499 1501 1502 1502 1502 1502 1503 1504 1506 1507 1508 1510 1512 1514 1516 1517 1518 1520 1521 1523 1524 1525 1526 1527 1528 1530 1531 1531
1456 1463 1467 1467 1469 1472 1471 1470 1470 1471 1476 1480 1480 1478 1476 1473 1470 1470 1475 1480 1479 1477 1482 1489 1490 1491 1494 1496 1495 1494 1493 1491 1489 1488 1488 1488 1488 1488 1489 1489 1489 1490 1491 1492 1494 1494 1495 1495 1495 1495 1495 1496 1497 1498 1498 1499 1499 1499 1500 1501 1502 1502 1503 1503 1504 1506 1507 1508 1509 1511 1512 1514 1515 1515 1517 1518 1520 1521 1522 1523 1525 1526 1526 1527 1529 1529
1457 1466 1468 1468 1471 1476 1476 1474 1473 1474 1478 1483 1485 1484 1481 1479 1478 1478 1483 1487 1484 1484 1491 1494 1492 1495 1498 1498 1497 1495 1493 1491 1489 1488 1489 1489 1490 1490 1490 1490 1491 1491 1492 1493 1494 1495 1496 1496 1497 1497 1497 1498 1498 1499 1499 1499 1499 1500 1500 1501 1502 1503 1503 1504 1506 1507 1508 1509 1510 1511 1512 1513 1513 1514 1516 1517 1518 1520 1521 1522 1524 1524 1524 1525 1526 1527
1455 1465 1469 1467 1471 1479 1479 1477 1476 1475 1477 1481 1485 1485 1482 1481 1483 1485 1488 1490 1489 1492 1498 1495 1492 1497 1500 1498 1498 1495 1492 1490 1489 1490 1491 1491 1491 1491 1491 1492 1492 1492 1493 1494 1494 1495 1496 1497 1498 1499 1499 1500 1500 1501 1501 1501 1500 1500 1501 1502 1502 1503 1504 1505 1506 1507 1508 1509 1510 1510 1511 1512 1513 1513 1514 1516 1517 1518 1520 1522 1523 1522 1522 1523 1524 1525
1456 1465 1469 1467 1471 1478 1479 1478 1477 1475 1476 1480 1484 1487 1486 1484 1487 1491 1494 1495 1493 1493 1495 1493 1495 1500 1500 1498 1498 1496 1493 1492 1493 1494 1494 1493 1493 1492 1492 1493 1493 1494 1494 1495 1495 1495 1496 1497 1498 1499 1500 1501 1502 1503 1503 1503 1503 1502 1503 1503 1503 1504 1504 1505 1506 1507 1508 1509 1509 1510 1511 1511 1512 1512 1513 1515 1516 1518 1519 1520 1521 1521 1522 1523 1524 1525
1460 1463 1467 1469 1472 1477 1480 1480 1478 1475 1477 1483 1488 1491 1493 1491 1491 1495 1499 1500 1498 1495 1494 1495 1498 1501 1501 1500 1499 1498 1497 1497 1497 1497 1497 1497 1496 1495 1495 1495 1495 1496 1496 1497 1497 1497 1497 1497 1498 1499 1500 1501 1503 1504 1504 1505 1505 1504 1504 1505 1505 1505 1505 1506 1507 1508 1509 1509 1510 1511 1511 1511 1512 1512 1513 1515 1516 1517 1519 1520 1521 1521 1523 1524 1525 1526
1463 1462 1467 1471 1472 1476 1481 1480 1478 1477 1482 1489 1493 1493 1494 1493 1491 1495 1502 1504 1502 1499 1498 1499 1502 1502 1502 1501 1501 1501 1501 1501 1501 1501 1500 1499 1499 1498 1498 1499 1499 1499 1499 1499 1500 1499 1499 1499 1500 1500 1501 1502 1502 1503 1504 1505 1505 1505 1505 1506 1506 1506 1506 1507 1507 1508 1509 1509 1510 1511 1511 1512 1512 1513 1514 1515 1516 1517 1518 1519 1520 1521 1522 1523 1524 1525
1464 1463 1469 1473 1473 1479 1483 1480 1479 1484 1489 1494 1496 1494 1494 1495 1493 1496 1504 1506 1503 1503 1503 1502 1503 1503 1503 1503 1503 1503 1503 1503 1503 1502 1501 1501 1501 1501 1501 1501 1502 1502 1502 1502 1502 1502 1502 1501 1501 1502 1502 1502 1503 1503 1503 1504 1504 1505 1505 1505 1506 1507 1507 1507 1507 1508 1508 1509 1509 1510 1511 1511 1512 1513 1514 1515 1515 1516 1517 1518 1519 1520 1520 1521 1522 1522
1464 1465 1469 1474 1478 1482 1483 1480 1483 1492 1497 1498 1498 1496 1497 1497 1494 1493 1501 1507 1506 1505 1505 1504 1505 1505 1504 1504 1504 1504 1504 1504 1503 1502 1503 1503 1503 1503 1503 1503 1503 1503 1503 1503 1503 1504 1504 1504 1504 1503 1503 1503 1504 1504 1504 1505 1505 1505 1505 1505 1505 1506 1506 1507 1507 1507 1508 1508 1509 1509 1510 1511 1512 1512 1513 1514 1514 1515 1516 1517 1518 1518 1518 1519 1519 1520
1464 1465 1467 1472 1479 1482 1483 1489 1496 1501 1502 1500 1498 1498 1498 1498 1496 1495 1502 1509 1509 1507 1507 1506 1506 1506 1505 1505 1505 1505 1505 1504 1503 1505 1506 1505 1505 1505 1505 1505 1505 1505 1504 1504 1504 1504 1504 1504 1504 1505 1504 1505 1505 1505 1505 1505 1505 1504 1505 1505 1505 1505 1506 1506 1506 1506 1507 1508 1508 1508 1509 1510 1511 1512 1512 1513 1514 1514 1515 1516 1516 1516 1517 1517 1517 1518
1464 1465 1464 1469 1479 1483 1485 1496 1506 1506 1502 1499 1498 1498 1498 1499 1499 1497 1501 1508 1509 1507 1507 1507 1506 1507 1506 1505 1505 1504 1504 1505 1507 1508 1508 1507 1507 1507 1507 1507 1507 1506 1506 1505 1505 1504 1504 1504 1504 1505 1505 1506 1506 1506 1505 1505 1504 1504 1504 1505 1504 1504 1505 1506 1506 1506 1506 1506 1507 1507 1508 1509 1510 1511 1511 1512 1513 1513 1513 1514 1514 1515 1515 1515 1516 1516
1465 1468 1467 1468 1477 1482 1480 1485 1496 1501 1500 1500 1500 1499 1498 1498 1499 1498 1501 1508 1511 1508 1506 1506 1506 1507 1507 1506 1505 1505 1505 1507 1510 1511 1510 1509 1509 1509 1509 1508 1508 1508 1507 1506 1506 1505 1505 1505 1505 1505 1504 1504 1504 1504 1503 1503 1503 1503 1504 1504 1503 1503 1504 1505 1506 1507 1506 1506 1506 1506 1507 1508 1509 1510 1510 1511 1511 1512 1512 1512 1513 1513 1513 1514 1514 1514
1469 1472 1472 1472 1478 1481 1479 1484 1496 1502 1502 1502 1501 1499 1498 1497 1498 1499 1502 1506 1509 1508 1506 1506 1506 1506 1506 1507 1507 1507 1508 1510 1511 1511 1510 1510 1510 1509 1509 1509 1508 1508 1507 1507 1506 1506 1505 1505 1505 1504 1504 1503 1503 1502 1502 1502 1502 1502 1502 1503 1502 1502 1503 1504 1506 1506 1505 1505 1505 1505 1505 1506 1507 1508 1509 1509 1510 1510 1511 1511 1511 1511 1511 1512 1512 1513
1478 1479 1480 1481 1484 1484 1486 1495 1504 1505 1503 1500 1499 1499 1498 1497 1498 1501 1502 1505 1507 1508 1507 1506 1506 1506 1507 1507 1507 1509 1511 1512 1512 1511 1510 1510 1509 1509 1509 1508 1508 1508 1507 1506 1506 1505 1504 1504 1504 1504 1503 1503 1502 1502 1502 1501 1501 1501 1501 1502 1502 1502 1502 1503 1504 1504 1503 1503 1504 1503 1503 1503 1504 1506 1507 1508 1508 1509 1509 1509 1509 1510 1510 1510 1510 1510
1487 1487 1487 1488 1490 1491 1493 1500 1506 1506 1503 1500 1499 1499 1498 1497 1500 1503 1504 1506 1507 1507 1507 1507 1507 1507 1507 1507 1508 1509 1510 1510 1510 1510 1510 1509 1509 1508 1507 1507 1507 1506 1506 1505 1504 1503 1503 1503 1503 1503 1503 1502 1502 1501 1501 1501 1501 1500 1500 1500 1500 1500 1501 1501 1501 1501 1501 1501 1501 1501 1502 1502 1503 1504 1505 1506 1507 1507 1507 1507 1507 1507 1507 1507 1508 1508
1491 1492 1493 1494 1494 1495 1498 1502 1505 1505 1503 1500 1498 1500 1501 1501 1504 1506 1507 1508 1508 1508 1508 1508 1508 1508 1508 1508 1508 1508 1508 1508 1508 1508 1508 1507 1507 1506 1506 1505 1505 1504 1504 1503 1503 1502 1501 1500 1500 1500 1500 1500 1500 1500 1500 1499 1499 1499 1498 1498 1498 1498 1498 1499 1499 1499 1499 1499 1499 1499 1499 1500 1501 1502 1502 1503 1504 1504 1505 1505 1505 1505 1505 1505 1505 1506
1492 1492 1495 1497 1497 1497 1501 1505 1507 1507 1505 1502 1500 1503 1506 1506 1507 1508 1508 1508 1509 1509 1509 1508 1508 1508 1508 1508 1508 1507 1507 1506 1506 1506 1506 1505 1505 1504 1504 1503 1502 1502 1501 1501 1500 1499 1499 1498 1498 1498 1497 1498 1498 1498 1497 1497 1497 1497 1496 1496 1496 1495 1496 1496 1496 1496 1496 1496 1496 1497 1497 1497 1498 1498 1499 1500 1500 1501 1502 1503 1503 1503 1503 1503 1503 1504
1494 1493 1494 1498 1501 1501 1502 1506 1507 1507 1506 1504 1503 1505 1507 1507 1508 1509 1508 1509 1509 1509 1509 1508 1508 1508 1508 1507 1507 1507 1506 1506 1505 1505 1505 1504 1503 1503 1502 1501 1500 1499 1498 1498 1497 1497 1496 1495 1495 1494 1494 1494 1494 1494 1494 1494 1494 1494 1494 1494 1493 1493 1493 1493 1493 1493 1493 1493 1494 1494 1494 1494 1495 1495 1495 1496 1497 1498 1499 1499 1500 1500 1500 1500 1501 1502
1496 1494 1494 1498 1502 1503 1504 1506 1507 1507 1507 1506 1506 1507 1507 1507 1508 1508 1508 1508 1508 1508 1508 1508 1508 1507 1507 1507 1506 1505 1505 1504 1504 1503 1503 1502 1502 1501 1500 1499 1498 1497 1496 1495 1494 1494 1493 1492 1492 1491 1490 1490 1491 1491 1491 1491 1491 1491 1491 1491 1490 1490 1490 1490 1490 1490 1490 1490 1490 1491 1491 1491 1491 1492 1492 1493 1493 1494 1495 1495 1496 1497 1497 1497 1498 1499
1496 1495 1496 1499 1502 1504 1506 1508 1508 1507 1507 1507 1507 1507 1508 1508 1508 1508 1507 1507 1507 1507 1507 1507 1507 1506 1506 1505 1505 1504 1503 1503 1502 1501 1500 1500 1499 1498 1498 1497 1496 1495 1494 1493 1492 1491 1491 1490 1489 1488 1487 1487 1487 1487 1487 1487 1487 1487 1487 1487 1487 1487 1487 1487 1487 1487 1487 1487 1487 1488 1488 1488 1488 1489 1489 1490 1490 1490 1491 1492 1492 1493 1494 1494 1495 1496
1497 1496 1498 1501 1503 1504 1506 1507 1507 1507 1508 1508 1507 1508 1508 1507 1507 1507 1507 1507 1507 1507 1507 1506 1506 1505 1505 1504 1503 1502 1501 1501 1500 1498 1497 1497 1496 1495 1494 1493 1493 1492 1491 1490 1490 1489 1488 1487 1486 1485 1485 1484 1484 1484 1484 1483 1483 1483 1483 1483 1483 1482 1482 1482 1482 1483 1483 1483 1483 1484 1484 1485 1485 1485 1486 1486 1487 1487 1487 1488 1489 1490 1490 1491 1492 1493
1498 1497 1499 1503 1505 1507 1506 1506 1507 1508 1508 1508 1507 1507 1507 1507 1507 1507 1507 1507 1507 1506 1506 1505 1505 1504 1503 1502 1501 1500 1499 1498 1497 1496 1495 1493 1493 1492 1491 1490 1489 1488 1488 1487 1487 1486 1485 1484 1483 1482 1482 1481 1481 1481 1480 1480 1480 1480 1480 1479 1479 1479 1478 1478 1478 1478 1478 1478 1479 1479 1480 1481 1481 1481 1482 1482 1483 1484 1484 1485 1486 1486 1487 1488 1489 1490
1499 1500 1502 1503 1505 1507 1506 1504 1505 1507 1507 1506 1506 1506 1506 1506 1506 1506 1506 1505 1505 1505 1504 1504 1503 1502 1501 1500 1499 1498 1497 1496 1495 1493 1492 1491 1490 1489 1488 1487 1486 1485 1484 1484 1483 1483 1482 1481 1480 1479 1478 1478 1477 1477 1476 1476 1476 1476 1476 1475 1475 1475 1474 1474 1473 1473 1473 1474 1474 1474 1475 1476 1477 1477 1478 1478 1479 1480 1480 1481 1482 1483 1484 1485 1486 1486
1499 1501 1502 1502 1503 1504 1504 1503 1504 1504 1504 1505 1505 1505 1505 1505 1505 1504 1504 1504 1503 1503 1502 1502 1501 1500 1499 1498 1497 1496 1495 1493 1492 1490 1489 1487 1487 1485 1484 1483 1482 1481 1480 1480 1480 1479 1478 1478 1477 1476 1475 1474 1474 1473 1472 1472 1471 1471 1471 1471 1470 1470 1469 1468 1468 1467 1467 1468 1469 1469 1470 1471 1471 1472 1473 1474 1475 1475 1476 1477 1478 1479 1480 1481 1482 1483